User: anonymous   Login
Location: La Chapelle
(48.3135°N, 1.3085°W)
Time: 19:33:47
(UTC+00:00)
Language:

Ariane Rocket - Orbit

View from above orbital plane
View from above orbital plane
View from above satellite
View from above satellite

Ground track
Ground track

The orbit data is extracted from the following two-line orbital elements,

1 23561U 95021B   21335.38491718  .00000098  00000-0  47281-4 0  9992
2 23561  98.6535  26.6227 0008008 113.1264 257.9971 14.38064432395028
Epoch (UTC): 01 December 2021 09:14:16
Eccentricity: 0.0008008
inclination: 98.6535°
perigee height: 759 km
apogee height: 770 km
right ascension of ascending node: 26.6227°
argument of perigee: 113.1264°
revolutions per day: 14.38064432
mean anomaly at epoch: 257.9971°
orbit number at epoch: 39502

The dashed part of the orbit path shows where the satellite is in the earth's shadow,  

DLR